Temperature
9 9 9 9 9 9 9 9 9 9 9 9 9 10 9 9 9 9 9 9 9 10 9 10 10 10 10 10 10 9 9 9 8 8 8 8 8 8 7 7 7 7 6
8 8 8 8 9 9 9 9 9 9 9 9 9 9 9 9 9 9 9 9 9 9 9 9 9 9 9 9 9 9 8 8 8 8 7 7 7 7 7 6 6 6 6
8 8 8 8 8 8 8 8 8 8 8 8 8 8 8 8 8 8 8 8 8 8 8 8 8 8 8 8 8 8 8 8 7 7 7 7 6 6 6 6 6 5 5
7 7 7 7 7 8 8 8 8 8 8 8 8 8 8 8 8 8 8 8 8 8 8 8 8 8 8 8 7 7 7 7 7 7 6 6 6 5 5 5 5 5 5
6 7 7 7 7 7 7 7 7 7 7 7 7 7 7 7 7 7 7 7 7 7 7 7 7 7 7 7 7 7 7 7 6 6 6 5 5 5 5 4 4 4 4
6 6 6 6 6 6 6 6 6 6 7 7 7 7 7 7 7 7 6 7 7 7 7 7 6 6 6 6 6 6 6 6 6 5 5 5 5 4 4 4 4 3 3
5 5 5 5 5 5 5 5 6 6 6 6 6 6 6 6 6 6 6 6 6 6 6 6 6 6 6 6 5 5 5 5 5 5 5 4 4 4 4 3 3 3 3
4 4 4 5 5 5 5 5 5 5 5 5 5 5 5 6 5 6 6 6 6 6 6 5 5 5 5 5 5 5 4 4 4 4 4 4 3 3 3 3 2 2 2
4 4 4 4 4 4 4 4 4 4 4 4 5 5 5 5 5 5 5 5 5 5 5 5 5 5 5 4 4 4 4 4 3 3 3 3 3 2 2 2 2 2 2
3 3 3 3 3 3 3 3 4 4 4 4 4 4 4 4 4 4 4 4 4 4 4 4 4 4 4 4 3 3 3 3 3 3 2 2 2 2 2 1 1 1 1
2 2 2 3 3 3 3 3 3 3 3 3 3 3 3 3 3 3 3 4 4 4 4 4 4 3 3 3 3 2 2 2 2 2 2 2 1 1 1 1 1 1 0
2 2 2 2 2 2 2 2 2 3 3 3 3 3 3 3 3 3 3 3 3 3 3 3 3 2 2 2 2 2 1 1 1 1 1 1 1 1 0 -0 -0 -0 -0
1 1 1 2 2 2 2 2 2 2 2 2 1 2 2 2 2 2 2 2 2 2 2 2 2 1 1 1 1 1 1 1 1 1 0 0 0 -0 -1 -1 -1 -1 -1
1 1 1 1 1 1 1 1 1 1 1 1 1 1 1 1 1 1 1 1 1 1 1 1 1 1 1 1 0 0 0 0 0 -0 -0 -1 -1 -1 -1 -1 -1 -2 -2
-0 -0 -0 0 0 0 0 -0 -0 0 0 0 0 0 0 0 1 0 0 0 0 0 0 0 -0 -0 -0 -0 -0 -0 -0 -0 -1 -1 -1 -1 -1 -2 -2 -2 -2 -2 -2
-1 -1 -1 -1 -1 -1 -1 -1 -1 -1 -1 -0 -0 -0 -0 -0 -0 -0 -0 -0 -0 -0 -0 -0 -0 -0 -1 -1 -1 -1 -1 -1 -1 -1 -1 -2 -2 -2 -2 -2 -2 -2 -2
-2 -2 -2 -1 -1 -1 -1 -1 -1 -1 -1 -1 -1 -1 -1 -1 -1 -1 -1 -1 -1 -1 -1 -1 -1 -1 -1 -1 -1 -1 -1 -2 -2 -2 -2 -2 -2 -2 -3 -3 -3 -3 -3
-2 -2 -2 -2 -2 -2 -2 -2 -2 -2 -2 -1 -1 -1 -1 -1 -1 -1 -1 -1 -1 -1 -1 -1 -1 -2 -2 -2 -2 -2 -2 -2 -2 -2 -3 -3 -3 -3 -3 -3 -3 -3 -3
-2 -2 -3 -3 -3 -3 -3 -2 -3 -2 -2 -2 -2 -2 -2 -2 -2 -2 -2 -2 -2 -2 -2 -2 -2 -2 -2 -2 -2 -2 -2 -2 -3 -3 -3 -3 -3 -3 -3 -3 -3 -3 -4
-3 -3 -3 -3 -3 -3 -3 -3 -3 -3 -3 -3 -3 -3 -3 -2 -2 -2 -2 -3 -3 -3 -3 -3 -3 -3 -3 -3 -3 -3 -3 -3 -3 -3 -3 -3 -3 -3 -3 -4 -4 -4 -4
-4 -3 -3 -3 -3 -4 -4 -4 -4 -4 -4 -3 -3 -3 -3 -3 -3 -3 -3 -3 -3 -3 -3 -3 -3 -3 -3 -3 -3 -3 -3 -3 -3 -3 -4 -4 -4 -4 -4 -4 -4 -4 -4
-4 -4 -4 -4 -4 -4 -4 -4 -4 -4 -4 -4 -4 -4 -4 -4 -4 -4 -4 -4 -4 -4 -4 -4 -4 -4 -4 -4 -4 -4 -4 -4 -4 -4 -4 -4 -4 -4 -4 -4 -5 -5 -5
-4 -5 -5 -5 -5 -5 -4 -4 -5 -5 -4 -4 -4 -4 -4 -4 -4 -4 -4 -4 -4 -4 -4 -4 -4 -4 -4 -4 -4 -4 -4 -4 -4 -4 -5 -5 -5 -5 -5 -5 -5 -5 -5
-5 -5 -5 -5 -5 -5 -5 -5 -5 -5 -5 -5 -5 -5 -5 -5 -5 -5 -5 -5 -5 -5 -5 -5 -5 -4 -5 -5 -5 -5 -5 -5 -5 -5 -5 -5 -5 -5 -5 -5 -5 -5 -6
-5 -5 -5 -6 -6 -6 -6 -6 -6 -6 -6 -6 -6 -5 -5 -5 -5 -5 -5 -5 -5 -5 -5 -5 -5 -5 -5 -5 -5 -5 -5 -5 -5 -5 -5 -6 -6 -6 -6 -6 -6 -6 -6
-6 -6 -6 -6 -6 -6 -6 -6 -6 -6 -6 -6 -6 -6 -6 -6 -6 -6 -6 -6 -6 -6 -6 -6 -6 -6 -6 -6 -6 -6 -6 -6 -6 -6 -6 -6 -6 -6 -6 -6 -6 -7 -7
Wind_Speed
5 4 3 2 2 1 1 1 2 2 3 3 3 4 4 4 5 5 5 5 6 6 5 6 6 5 4 4 3 3 3 3 4 1 1 2 2 3 2 2 2 2 1
5 4 4 3 2 2 1 1 0 1 2 3 3 3 4 4 5 6 6 6 7 7 7 6 6 4 5 4 4 4 4 4 4 3 2 2 2 3 3 2 1 2 2
6 6 5 4 3 2 2 2 1 1 1 2 3 4 4 4 4 5 5 6 6 6 6 7 6 6 5 4 4 5 4 3 3 3 3 1 1 2 2 1 1 1 1
6 6 6 5 4 4 3 3 2 2 1 2 2 3 3 3 4 4 4 4 4 4 4 5 6 6 6 6 5 5 4 4 3 3 3 2 2 2 2 1 1 1 2
6 5 5 5 5 4 4 3 3 2 2 2 1 2 2 3 3 3 4 4 4 4 4 4 4 5 6 5 5 4 4 4 4 4 3 2 2 2 3 2 2 1 1
5 5 4 5 5 5 4 3 3 2 2 2 2 2 2 3 4 6 5 4 5 5 5 4 4 5 6 6 6 6 6 6 6 5 4 4 4 4 3 3 2 1 2
5 5 5 5 4 4 4 4 3 3 3 2 2 2 2 3 4 6 6 5 4 5 5 5 4 5 6 5 6 5 4 5 6 5 5 5 4 4 5 4 3 3 2
5 5 5 5 5 4 4 4 4 3 3 2 2 2 2 2 3 4 4 4 4 4 5 6 6 6 6 7 5 4 3 2 3 3 4 4 4 4 5 5 4 2 0
5 6 6 5 5 4 4 4 4 4 3 3 2 2 2 2 3 3 3 2 3 4 4 5 6 6 9 10 7 6 4 2 3 6 6 6 6 6 6 4 3 2 1
5 5 5 5 5 4 4 4 4 4 3 3 3 2 2 2 3 3 4 2 3 2 3 4 6 7 9 10 7 7 6 5 5 5 4 4 4 4 5 4 4 3 2
6 5 5 5 5 4 4 4 4 4 4 3 3 3 2 2 2 3 4 2 3 3 3 3 4 8 9 9 8 6 7 6 6 6 4 4 3 3 2 3 3 3 3
6 6 6 5 5 4 4 4 3 3 3 3 3 3 2 2 2 2 2 3 2 2 3 3 4 8 8 8 6 7 9 6 5 4 4 3 3 3 3 3 4 3 2
6 6 6 6 5 4 4 4 3 3 2 2 2 3 2 2 1 2 2 2 2 2 2 4 5 7 7 5 6 8 6 4 4 4 4 4 3 4 4 4 3 2 1
6 6 6 5 5 4 3 3 3 3 3 3 2 3 3 2 2 1 1 1 1 2 2 3 5 5 4 5 5 4 3 4 5 4 4 3 3 4 4 3 3 2 1
5 6 6 5 5 4 4 3 3 3 3 3 3 3 3 4 3 3 2 1 1 2 2 1 1 2 3 3 3 3 3 4 4 4 4 4 4 4 3 3 3 3 2
5 5 5 4 4 4 4 4 4 4 5 5 5 5 4 6 5 4 4 3 3 4 2 2 2 3 3 4 4 4 4 4 4 4 4 5 5 5 4 4 3 4 4
6 5 4 4 4 4 4 4 4 5 5 5 5 6 5 5 5 4 3 3 4 3 2 2 3 3 3 4 4 4 4 4 4 4 4 4 5 5 4 4 4 4 4
6 6 5 4 4 4 4 4 3 4 4 4 4 5 5 5 3 3 3 2 1 1 1 2 2 3 3 3 4 4 4 4 4 4 4 4 5 5 5 5 5 5 5
5 4 4 4 4 4 3 3 3 4 3 3 3 4 4 3 2 2 2 1 1 1 1 2 2 2 2 3 3 3 3 4 4 4 5 5 5 5 5 5 5 8 6
5 7 6 4 4 4 3 3 3 3 3 3 3 3 2 2 1 1 1 1 1 1 2 2 2 2 2 3 3 3 3 3 4 4 4 5 5 5 6 6 6 6 6
4 5 6 5 4 4 3 4 3 3 3 3 3 3 4 2 1 2 1 1 1 1 1 1 1 1 1 1 2 3 3 3 3 3 3 4 4 5 5 5 6 6 5
4 4 4 4 4 4 4 3 3 3 3 3 3 3 5 2 1 1 1 1 1 1 1 1 1 2 2 2 2 2 3 3 3 3 3 3 3 4 4 5 5 5 5
4 4 4 4 4 5 5 3 3 3 3 3 2 3 3 2 2 2 2 2 2 1 1 1 1 1 2 2 3 3 3 4 4 3 4 4 4 4 4 5 6 6 6
4 4 4 4 4 3 3 3 3 3 3 3 3 2 2 2 2 2 2 2 2 2 1 1 1 2 3 3 3 4 5 5 5 5 5 4 4 4 4 4 5 6 6
3 4 4 3 4 4 4 4 3 3 3 3 3 3 2 2 2 2 2 2 2 2 2 2 2 2 3 3 4 5 6 6 6 6 5 4 5 5 5 5 5 5 5
3 3 3 3 3 3 4 4 4 4 3 3 3 3 3 3 3 2 2 2 2 2 2 2 3 4 5 5 5 6 6 7 7 7 6 4 5 5 5 5 5 5 5
Wind_Direction
41 37 39 50 63 70 132 182 191 201 202 199 197 195 194 195 199 200 208 205 208 216 212 203 209 201 195 197 193 191 194 190 217 215 125 130 140 153 144 144 159 173 202
29 24 26 28 52 57 38 49 190 217 215 210 208 204 209 210 207 208 215 213 212 216 214 209 211 200 199 198 190 192 197 188 192 205 188 168 171 168 157 161 191 196 205
24 23 22 27 29 35 21 13 355 295 254 233 218 212 214 218 217 214 219 220 215 214 208 203 202 191 200 203 197 196 192 185 180 186 187 168 155 152 149 168 186 203 246
21 20 18 16 15 16 11 360 347 333 309 270 246 229 220 221 222 219 217 218 214 213 207 200 197 193 197 193 197 197 185 179 175 174 175 170 163 156 150 173 217 234 251
20 19 16 10 10 10 8 357 347 339 316 291 271 256 233 225 220 211 210 211 207 205 201 196 190 180 183 186 192 190 181 181 178 179 183 176 179 168 190 180 196 220 242
17 13 10 9 7 3 358 351 341 324 308 301 283 262 253 245 215 218 215 211 206 202 199 188 178 176 177 177 181 186 188 190 188 186 191 194 200 192 174 163 154 146 256
6 6 7 2 1 355 351 349 340 327 316 303 290 270 262 251 228 222 219 212 203 203 195 187 189 184 178 173 173 172 190 200 194 183 187 196 186 181 166 165 172 183 212
359 1 360 356 349 344 343 339 331 323 316 306 304 294 279 268 242 220 209 202 198 202 195 187 184 183 183 171 165 163 166 174 179 168 170 173 159 151 158 165 164 145 108
353 350 344 339 336 338 340 334 327 324 319 313 303 285 275 272 252 227 211 196 196 198 189 181 179 180 183 174 164 162 165 166 140 136 131 128 128 134 138 127 132 136 192
341 337 332 330 329 328 326 322 321 317 309 315 311 297 276 266 248 225 206 185 186 184 175 176 184 184 181 177 172 169 177 176 149 133 128 123 124 138 145 146 158 162 168
333 333 330 331 325 320 324 321 320 321 320 318 310 309 313 304 277 242 218 192 187 183 184 185 187 183 184 185 183 176 180 168 154 150 148 145 136 130 123 123 129 149 166
334 331 330 328 325 323 320 318 320 325 323 318 319 324 332 329 314 277 231 204 191 188 194 187 179 176 180 184 187 179 173 164 146 148 155 168 169 165 152 131 123 119 138
332 328 325 322 318 317 316 313 316 317 309 305 309 307 312 318 299 275 236 213 198 193 187 178 175 174 174 176 179 177 170 156 152 163 178 185 174 158 140 128 115 114 117
324 322 317 313 314 315 311 306 303 299 302 301 296 296 299 294 284 274 228 196 177 169 163 172 177 172 165 169 173 175 169 171 172 180 180 169 148 148 156 157 161 159 178
315 312 313 312 311 314 312 302 297 288 280 278 274 269 276 280 273 273 269 238 205 189 162 148 159 165 172 174 171 175 176 177 186 177 173 170 168 170 175 168 171 177 193
312 311 311 312 310 309 311 317 323 307 310 306 291 281 280 277 277 271 261 245 229 203 191 182 192 192 196 192 190 190 190 192 191 184 182 182 181 183 184 179 179 192 210
306 304 305 307 306 305 305 307 315 328 331 325 313 304 292 281 273 266 254 239 223 208 213 198 203 200 200 195 194 193 196 195 185 183 188 190 186 187 188 191 195 207 220
307 302 302 300 302 302 301 301 300 302 312 320 321 314 307 296 279 264 248 246 227 223 218 216 215 206 200 198 199 201 199 189 187 190 194 196 195 196 198 202 205 212 221
305 303 303 302 300 300 300 300 298 295 293 300 309 315 316 314 310 286 277 262 227 233 234 233 223 205 200 197 199 201 200 197 194 194 200 202 200 200 206 209 211 219 221
304 307 313 308 304 305 305 304 302 299 297 295 297 302 312 328 317 294 284 272 252 247 231 232 231 217 207 202 197 195 197 199 197 201 204 205 203 204 209 210 212 216 220
307 308 312 312 305 304 303 300 299 298 300 300 300 304 310 305 287 281 275 270 262 254 245 241 236 230 227 210 201 201 200 202 201 204 207 207 204 210 215 214 214 216 217
303 303 305 305 306 307 308 306 306 303 301 302 312 317 315 321 304 292 295 291 281 261 240 232 237 233 225 216 209 208 212 215 212 208 209 211 214 220 222 221 220 218 218
303 304 307 308 309 311 314 316 317 310 304 303 307 314 318 316 312 312 311 314 313 305 285 254 248 254 243 237 223 209 216 222 219 212 213 218 220 222 223 224 222 221 222
306 305 306 309 314 313 312 312 311 310 310 312 311 308 308 306 303 304 308 308 308 310 301 282 271 260 250 248 245 236 235 235 229 222 216 220 223 226 225 226 228 227 225
302 302 304 306 310 312 314 313 312 311 309 309 308 308 307 307 307 306 304 304 300 298 302 295 285 279 271 259 255 250 250 247 240 231 221 218 222 222 224 227 227 229 227
299 302 304 307 309 312 313 313 312 312 310 310 308 306 305 304 302 304 308 307 302 297 298 290 279 276 276 270 263 263 264 259 254 246 232 220 219 223 221 226 224 227 227
Height
1450 1450 1451 1452 1454 1455 1457 1458 1460 1462 1463 1465 1466 1467 1469 1471 1473 1475 1477 1479 1481 1482 1484 1485 1486 1488 1489 1491 1492 1492 1494 1495 1495 1496 1497 1498 1499 1499 1498 1498 1499 1498 1498
1450 1450 1450 1452 1453 1454 1455 1455 1457 1458 1459 1460 1462 1463 1465 1466 1468 1470 1471 1473 1474 1476 1477 1478 1480 1481 1483 1484 1485 1486 1487 1488 1490 1490 1491 1492 1493 1493 1493 1493 1494 1493 1494
1450 1450 1450 1451 1451 1451 1452 1453 1454 1455 1455 1456 1457 1458 1459 1461 1463 1464 1466 1467 1468 1470 1471 1472 1473 1475 1476 1477 1478 1480 1481 1482 1483 1485 1485 1486 1487 1487 1488 1488 1489 1489 1489
1451 1451 1450 1450 1450 1450 1450 1451 1451 1451 1452 1452 1453 1454 1454 1456 1457 1459 1460 1461 1462 1463 1465 1466 1467 1468 1470 1471 1473 1474 1475 1477 1478 1478 1480 1481 1481 1482 1483 1483 1484 1485 1485
1451 1451 1450 1450 1449 1449 1448 1448 1449 1449 1449 1449 1449 1449 1450 1451 1452 1453 1455 1455 1456 1457 1459 1460 1461 1462 1464 1466 1468 1469 1470 1470 1472 1473 1474 1475 1476 1477 1478 1478 1479 1480 1480
1451 1450 1450 1449 1448 1447 1447 1446 1446 1446 1446 1446 1445 1445 1445 1446 1447 1448 1449 1450 1451 1452 1453 1454 1455 1457 1458 1460 1462 1463 1465 1465 1466 1467 1468 1470 1471 1472 1473 1474 1475 1475 1476
1451 1450 1449 1448 1447 1446 1445 1444 1443 1443 1442 1442 1442 1441 1441 1442 1443 1443 1444 1445 1445 1446 1447 1448 1450 1451 1453 1454 1456 1457 1459 1460 1461 1463 1464 1465 1466 1467 1468 1469 1470 1471 1471
1450 1449 1447 1446 1445 1444 1443 1442 1441 1441 1439 1438 1438 1437 1437 1437 1438 1438 1439 1439 1440 1441 1442 1444 1445 1446 1448 1449 1450 1452 1453 1455 1456 1457 1459 1460 1462 1463 1464 1466 1466 1467 1468
1449 1447 1446 1445 1443 1442 1440 1439 1439 1437 1436 1435 1434 1434 1433 1433 1433 1434 1434 1434 1435 1436 1437 1439 1440 1441 1442 1444 1445 1447 1448 1450 1452 1453 1454 1456 1457 1458 1460 1461 1462 1463 1463
1448 1446 1444 1443 1441 1439 1438 1437 1436 1434 1433 1432 1431 1430 1429 1429 1429 1429 1430 1430 1430 1431 1432 1434 1435 1437 1438 1439 1441 1442 1444 1445 1447 1448 1451 1452 1453 1454 1456 1457 1458 1459 1460
1446 1444 1442 1440 1439 1437 1435 1434 1433 1431 1430 1429 1428 1427 1427 1426 1426 1426 1426 1426 1427 1427 1428 1429 1431 1433 1434 1435 1437 1438 1440 1441 1442 1444 1446 1448 1449 1451 1452 1453 1454 1456 1456
1444 1441 1439 1437 1436 1434 1432 1431 1430 1428 1427 1426 1425 1424 1424 1423 1423 1423 1423 1423 1424 1424 1425 1426 1427 1429 1430 1432 1433 1434 1436 1438 1439 1440 1442 1444 1445 1447 1448 1450 1451 1452 1453
1441 1438 1436 1435 1433 1431 1429 1427 1426 1425 1424 1423 1422 1421 1421 1421 1420 1420 1420 1420 1420 1421 1422 1423 1424 1425 1427 1428 1429 1431 1432 1434 1435 1437 1439 1441 1442 1443 1445 1446 1447 1448 1449
1438 1436 1434 1432 1430 1428 1426 1425 1423 1422 1421 1420 1419 1419 1418 1418 1417 1417 1416 1417 1417 1418 1419 1419 1420 1422 1423 1425 1426 1428 1429 1431 1432 1434 1435 1437 1438 1439 1441 1442 1443 1444 1445
1435 1433 1431 1429 1427 1425 1423 1422 1421 1420 1420 1418 1417 1416 1415 1414 1414 1414 1414 1413 1414 1415 1415 1416 1417 1418 1419 1421 1422 1424 1426 1427 1429 1430 1432 1433 1434 1436 1437 1438 1439 1440 1441
1432 1430 1428 1426 1424 1422 1420 1419 1418 1417 1416 1415 1414 1413 1412 1412 1411 1411 1411 1411 1411 1411 1412 1413 1414 1415 1416 1418 1419 1421 1422 1424 1425 1426 1428 1429 1430 1432 1433 1434 1435 1436 1437
1429 1427 1425 1423 1421 1419 1417 1415 1413 1413 1412 1411 1410 1410 1409 1408 1407 1407 1407 1407 1408 1408 1409 1409 1410 1412 1413 1414 1416 1417 1418 1420 1421 1422 1424 1425 1427 1428 1429 1430 1431 1432 1433
1426 1424 1422 1420 1418 1416 1415 1413 1411 1409 1408 1407 1407 1406 1405 1405 1404 1404 1405 1405 1405 1405 1406 1407 1407 1408 1410 1411 1412 1414 1415 1416 1417 1418 1420 1421 1423 1424 1425 1426 1427 1428 1429
1423 1421 1419 1417 1415 1414 1412 1410 1408 1407 1405 1404 1404 1403 1403 1402 1402 1402 1402 1402 1402 1402 1403 1404 1405 1406 1407 1408 1409 1410 1412 1413 1414 1415 1416 1418 1419 1420 1421 1422 1423 1424 1425
1419 1418 1416 1414 1412 1411 1409 1407 1406 1404 1403 1402 1401 1401 1400 1400 1399 1399 1399 1400 1400 1400 1401 1401 1402 1403 1404 1405 1406 1407 1408 1409 1410 1411 1412 1414 1415 1416 1417 1418 1419 1420 1420
1417 1415 1413 1412 1410 1408 1407 1405 1403 1402 1401 1400 1399 1398 1398 1397 1397 1397 1397 1397 1397 1397 1398 1398 1399 1400 1400 1401 1402 1403 1404 1405 1406 1407 1408 1409 1410 1411 1412 1413 1414 1415 1416
1414 1413 1411 1409 1408 1406 1404 1403 1401 1400 1399 1398 1397 1397 1396 1396 1395 1394 1394 1394 1394 1395 1395 1396 1396 1397 1397 1398 1398 1399 1399 1400 1402 1403 1404 1405 1406 1406 1408 1408 1409 1410 1411
1411 1410 1408 1407 1405 1404 1402 1401 1400 1398 1397 1396 1395 1394 1394 1393 1393 1392 1392 1392 1392 1392 1392 1392 1393 1393 1393 1394 1394 1395 1396 1396 1397 1398 1399 1400 1400 1401 1402 1403 1404 1405 1405
1409 1407 1406 1404 1403 1401 1400 1399 1397 1396 1395 1394 1393 1392 1392 1391 1390 1390 1389 1389 1389 1389 1389 1389 1389 1389 1390 1390 1391 1391 1392 1392 1393 1393 1394 1395 1395 1396 1397 1398 1398 1399 1400
1406 1404 1403 1402 1400 1399 1398 1396 1395 1394 1393 1391 1391 1390 1389 1388 1388 1387 1387 1387 1386 1386 1386 1386 1386 1386 1386 1387 1387 1387 1388 1388 1388 1389 1389 1390 1390 1391 1392 1393 1393 1394 1395
1403 1402 1400 1399 1398 1396 1395 1394 1392 1391 1390 1389 1388 1387 1387 1386 1385 1385 1385 1384 1384 1384 1383 1383 1383 1383 1383 1383 1383 1383 1384 1384 1384 1384 1385 1385 1385 1386 1387 1387 1388 1389 1389